Ely, MN

4:22 PM CDT on August 28, 2016 (GMT -0500)
Ely Municipal

Weather History for KELO - September, 2013

Change the Weather History Date:

Friday, September 13, 2013

  Actual Average Record
Temperature  
Mean Temperature 50 °F -  
Max Temperature 64 °F 66 °F 80 °F (2004)
Min Temperature 35 °F 45 °F 33 °F (1996)
Degree Days  
Heating Degree Days 16    
Moisture  
Dew Point 42 °F    
Average Humidity 75    
Maximum Humidity 100    
Minimum Humidity 48    
Precipitation  
Precipitation 0.00 in - - ()
Sea Level Pressure  
Sea Level Pressure 30.18 in    
Wind  
Wind Speed 2 mph (SSW)    
Max Wind Speed 10 mph    
Max Gust Speed -    
Visibility 10 miles    
Events      
Averages and records for this station are not official NWS values.
T = Trace of Precipitation, MM = Missing Value Source: NWS Daily Summary

Daily Weather History Graph

Daily Weather History Graph

Search for Another Location

Airport or City:

Trip Planner

Search our weather history database for the weather conditions in past years. The results will help you decide how hot, cold, wet, or windy it might be!

Date:

Astronomy

Sep. 13, 2013 Rise Set
Actual Time 6:42 AM CDT 7:23 PM CDT
Civil Twilight 6:10 AM CDT 7:54 PM CDT
Nautical Twilight 5:33 AM CDT 8:31 PM CDT
Astronomical Twilight 4:54 AM CDT 9:10 PM CDT
Moon 3:31 PM CDT (9/13) No Moon Set
Length of Visible Light 13h 43m
Length of Day
12h 40m
First Quarter, 61% of the Moon is Illuminated
Sep 13
First Quarter
Sep 19
Full
Sep 26
Last Quarter
Oct 4
New
Oct 11
First Quarter

Hourly Weather History & Observations

Time (CDT) Temp. Dew Point Humidity Pressure Visibility Wind Dir Wind Speed Gust Speed Precip Events Conditions
12:13 AM 37.4 °F 35.6 °F 93% 30.24 in 10.0 mi Calm Calm - N/A   Clear
12:33 AM 37.4 °F 37.4 °F 100% 30.24 in 10.0 mi Calm Calm - N/A   Clear
12:52 AM 37.4 °F 35.6 °F 93% 30.23 in 10.0 mi Calm Calm - N/A   Clear
1:13 AM 37.4 °F 35.6 °F 93% 30.24 in 10.0 mi Calm Calm - N/A   Clear
1:33 AM 35.6 °F 35.6 °F 100% 30.24 in 10.0 mi Calm Calm - N/A   Clear
1:52 AM 35.6 °F 35.6 °F 100% 30.23 in 10.0 mi Calm Calm - N/A   Clear
2:13 AM 35.6 °F 35.6 °F 100% 30.24 in 10.0 mi Calm Calm - N/A   Clear
2:33 AM 35.6 °F 33.8 °F 93% 30.24 in 10.0 mi Calm Calm - N/A   Clear
2:52 AM 35.6 °F 35.6 °F 100% 30.24 in 10.0 mi Calm Calm - N/A   Clear
3:13 AM 35.6 °F 35.6 °F 100% 30.24 in 10.0 mi Calm Calm - N/A   Clear
3:33 AM 39.2 °F 37.4 °F 93% 30.24 in 10.0 mi Calm Calm - N/A   Clear
3:52 AM 35.6 °F 35.6 °F 100% 30.24 in 10.0 mi Calm Calm - N/A   Clear
4:13 AM 35.6 °F 33.8 °F 93% 30.25 in 7.0 mi Calm Calm - N/A   Scattered Clouds
4:33 AM 35.6 °F 35.6 °F 100% 30.25 in 10.0 mi Calm Calm - N/A   Mostly Cloudy
4:52 AM 37.4 °F 37.4 °F 100% 30.25 in 10.0 mi Calm Calm - N/A   Overcast
5:13 AM 39.2 °F 37.4 °F 93% 30.25 in 10.0 mi Calm Calm - N/A   Overcast
5:33 AM 37.4 °F 37.4 °F 100% 30.25 in 10.0 mi Calm Calm - N/A   Scattered Clouds
5:52 AM 37.4 °F 37.4 °F 100% 30.25 in 10.0 mi Calm Calm - N/A   Clear
6:13 AM 35.6 °F 35.6 °F 100% 30.25 in 10.0 mi Calm Calm - N/A   Clear
6:33 AM 35.6 °F 35.6 °F 100% 30.25 in 10.0 mi Calm Calm - N/A   Clear
6:52 AM 35.6 °F 33.8 °F 93% 30.25 in 10.0 mi Calm Calm - N/A   Clear
7:13 AM 35.6 °F 35.6 °F 100% 30.25 in 10.0 mi Calm Calm - N/A   Clear
7:33 AM 39.2 °F 37.4 °F 93% 30.25 in 10.0 mi Calm Calm - N/A   Clear
7:53 AM 42.8 °F 41.0 °F 93% 30.25 in 10.0 mi Calm Calm - N/A   Clear
8:13 AM 44.6 °F 42.8 °F 93% 30.25 in 10.0 mi Calm Calm - N/A   Clear
8:33 AM 46.4 °F 44.6 °F 93% 30.24 in 10.0 mi Calm Calm - N/A   Clear
8:51 AM 50.0 °F 44.6 °F 82% 30.24 in 10.0 mi Calm Calm - N/A   Clear
9:13 AM 51.8 °F 44.6 °F 76% 30.24 in 10.0 mi Calm Calm - N/A   Clear
9:32 AM 53.6 °F 46.4 °F 77% 30.25 in 10.0 mi SSW 4.6 mph - N/A   Clear
9:53 AM 55.4 °F 46.4 °F 72% 30.25 in 10.0 mi WSW 5.8 mph - N/A   Clear
10:13 AM 55.4 °F 46.4 °F 72% 30.25 in 10.0 mi SSW 4.6 mph - N/A   Clear
10:32 AM 57.2 °F 46.4 °F 67% 30.25 in 10.0 mi WSW 4.6 mph - N/A   Clear
10:53 AM 57.2 °F 46.4 °F 67% 30.24 in 10.0 mi West 5.8 mph - N/A   Clear
11:13 AM 59.0 °F 44.6 °F 59% 30.24 in 10.0 mi SSW 6.9 mph - N/A   Clear
11:32 AM 60.8 °F 44.6 °F 55% 30.23 in 10.0 mi SW 3.5 mph - N/A   Clear
11:53 AM 60.8 °F 44.6 °F 55% 30.22 in 10.0 mi WSW 5.8 mph - N/A   Clear
12:13 PM 59.0 °F 44.6 °F 59% 30.22 in 10.0 mi WSW 6.9 mph - N/A   Scattered Clouds
12:32 PM 62.6 °F 44.6 °F 52% 30.21 in 10.0 mi SW 6.9 mph - N/A   Mostly Cloudy
12:53 PM 60.8 °F 42.8 °F 52% 30.21 in 10.0 mi SSW 4.6 mph - N/A   Scattered Clouds
1:13 PM 62.6 °F 42.8 °F 48% 30.19 in 10.0 mi SSW 5.8 mph - N/A   Scattered Clouds
1:32 PM 62.6 °F 42.8 °F 48% 30.19 in 10.0 mi South 5.8 mph - N/A   Mostly Cloudy
1:53 PM 60.8 °F 42.8 °F 52% 30.18 in 10.0 mi SW 9.2 mph - N/A   Mostly Cloudy
2:13 PM 62.6 °F 42.8 °F 48% 30.17 in 10.0 mi WSW 4.6 mph - N/A   Mostly Cloudy
2:32 PM 62.6 °F 44.6 °F 52% 30.16 in 10.0 mi SW 5.8 mph - N/A   Overcast
2:53 PM 62.6 °F 44.6 °F 52% 30.16 in 10.0 mi SW 4.6 mph - N/A   Mostly Cloudy
3:13 PM 62.6 °F 44.6 °F 52% 30.16 in 10.0 mi SW 5.8 mph - N/A   Mostly Cloudy
3:32 PM 62.6 °F 44.6 °F 52% 30.15 in 10.0 mi SSW 6.9 mph - N/A   Scattered Clouds
3:53 PM 62.6 °F 44.6 °F 52% 30.14 in 10.0 mi WSW 6.9 mph - N/A   Mostly Cloudy
4:13 PM 64.4 °F 44.6 °F 49% 30.13 in 10.0 mi WSW 10.4 mph - N/A   Mostly Cloudy
4:32 PM 64.4 °F 44.6 °F 49% 30.12 in 10.0 mi Calm Calm - N/A   Scattered Clouds
4:53 PM 64.4 °F 46.4 °F 52% 30.12 in 10.0 mi SW 8.1 mph - N/A   Clear
5:13 PM 64.4 °F 44.6 °F 49% 30.11 in 10.0 mi South 6.9 mph - N/A   Scattered Clouds
5:32 PM 62.6 °F 46.4 °F 55% 30.10 in 10.0 mi WSW 5.8 mph - N/A   Scattered Clouds
5:53 PM 62.6 °F 44.6 °F 52% 30.10 in 10.0 mi SW 5.8 mph - N/A   Clear
6:13 PM 62.6 °F 46.4 °F 55% 30.09 in 10.0 mi SSW 3.5 mph - N/A   Clear
6:32 PM 60.8 °F 46.4 °F 59% 30.09 in 10.0 mi SSW 4.6 mph - N/A   Clear
6:53 PM 59.0 °F 46.4 °F 63% 30.08 in 10.0 mi South 3.5 mph - N/A   Clear
7:13 PM 57.2 °F 46.4 °F 67% 30.08 in 10.0 mi South 3.5 mph - N/A   Clear
7:32 PM 57.2 °F 46.4 °F 67% 30.07 in 10.0 mi South 4.6 mph - N/A   Clear
7:53 PM 55.4 °F 46.4 °F 72% 30.06 in 10.0 mi South 4.6 mph - N/A   Clear
8:13 PM 55.4 °F 46.4 °F 72% 30.07 in 10.0 mi South 4.6 mph - N/A   Clear
8:32 PM 53.6 °F 46.4 °F 77% 30.07 in 10.0 mi South 5.8 mph - N/A   Clear
8:53 PM 53.6 °F 44.6 °F 72% 30.07 in 10.0 mi South 5.8 mph - N/A   Clear
9:13 PM 53.6 °F 44.6 °F 72% 30.06 in 10.0 mi South 6.9 mph - N/A   Clear
9:32 PM 51.8 °F 44.6 °F 76% 30.06 in 10.0 mi South 5.8 mph - N/A   Clear
9:53 PM 51.8 °F 44.6 °F 76% 30.05 in 10.0 mi South 3.5 mph - N/A   Clear
10:13 PM 51.8 °F 44.6 °F 76% 30.05 in 10.0 mi SSW 4.6 mph - N/A   Clear
10:33 PM 51.8 °F 44.6 °F 76% 30.04 in 10.0 mi South 5.8 mph - N/A   Clear
10:53 PM 51.8 °F 44.6 °F 76% 30.04 in 10.0 mi SSW 4.6 mph - N/A   Clear
11:13 PM 50.0 °F 44.6 °F 82% 30.04 in 10.0 mi South 4.6 mph - N/A   Clear
11:32 PM 50.0 °F 44.6 °F 82% 30.04 in 10.0 mi South 4.6 mph - N/A   Clear
11:53 PM 50.0 °F 44.6 °F 82% 30.04 in 10.0 mi SSW 3.5 mph - N/A   Clear